Miscellaneous Local Product
Issued by NWS North Platte, NE

Home | Current Version | Previous Version | Text Only | Print | Product List | Glossary On
Versions: 1 2 3 4 5 6 7 8 9 10 11 12 13 14 15 16 17 18 19 20 21 22 23 24 25 26 27 28 29 30 31 32 33 34 35 36 37 38 39 40 41 42 43 44 45 46 47 48 49 50
000
AXUS43 KLBF 121110
MISLBF


WESTERN AND NORTH CENTRAL NEBRASKA HOURLY WEATHER ROUNDUP
NATIONAL WEATHER SERVICE NORTH PLATTE NE
600 AM CDT SAT JUL 12 2014

***STATIONS NOT REPORTING VARIABLES SUCH AS SKY/WEATHER OR
PRESSURE ARE PROVIDED BY THE NEBRASKA DEPARTMENT OF
ROADS...RAWS...AND APRS NETWORKS...AND ARE NOT UNDER
NATIONAL WEATHER SERVICE QUALITY CONTROL***

...OBSERVATIONS IN AND NEAR THE EASTERN PANHANDLE OF NEBRASKA...

CITY           SKY/WX    TMP DP  RH WIND       PRES   REMARKS
PINE RIDGE     MOCLDY    61  59  93 CALM      30.12R
CHADRON        MOCLDY    63  60  90 NW5       30.12S
ALLIANCE       CLOUDY    60  59  96 NW8       30.12R
SIDNEY         CLOUDY    63  60  90 NW8       30.14F
WHITECLAY        N/A     60  58  95 CALM        N/A
RUSHVILLE        N/A     61  59  91 NW14        N/A
GORDON           N/A     65  63  96 NW15        N/A
CRESCENT LAKE    N/A     60  58  95 W5          N/A
LISCO            N/A     65  61  86 W6          N/A
BIG SPRINGS      N/A     66  64  94 CALM        N/A
$$

...OBSERVATIONS IN NORTH CENTRAL NEBRASKA...

CITY           SKY/WX    TMP DP  RH WIND       PRES   REMARKS
VALENTINE      CLOUDY    67  63  87 N9        30.06R
THEDFORD       CLOUDY    66  65  96 CALM      30.05R
AINSWORTH      CLOUDY    67  66  99 CALM      30.05R
O`NEILL        CLOUDY    66  62  86 SE9       30.00S
ORD            LGT RAIN  68  66  93 E9        29.98F
BROKEN BOW     CLOUDY    69  66  90 E7        30.01S
BROWNLEE         N/A     70  68  93 N3          N/A
SPRINGVIEW       N/A     67  65  92 CALM        N/A
ROSE             N/A     71  71  99 CALM        N/A
NEWPORT          N/A     68  68 100 SE7         N/A
SARGENT          N/A     67  65  95 CALM        N/A
COMSTOCK         N/A     74  73  96 E12         N/A
CHAMBERS         N/A     65  64  97 E6          N/A
EWING            N/A     66  63  90 E7G15       N/A
$$

...OBSERVATIONS IN SOUTHWEST NEBRASKA AND FAR NORTHEAST COLORADO...

CITY           SKY/WX    TMP DP  RH WIND       PRES   REMARKS
WRAY           CLOUDY    69  69 100 N3        30.09F
HOLYOKE        PTSUNNY   68  63  83 NW7       30.10R
IMPERIAL       CLOUDY    69  66  90 CALM      30.05F
OGALLALA       CLOUDY    66  64  94 N6        30.07R
NORTH PLATTE   CLOUDY    67  64  90 CALM      30.03R
MCCOOK         MOCLDY    71  68  90 NW7       30.00F
LEXINGTON      CLOUDY    73  71  93 E12       29.98F FOG
PAXTON           N/A     68  66  93 CALM        N/A
SUTHERLAND       N/A     66  64  94 CALM        N/A
BRADY            N/A     70  68  93 CALM        N/A
GOTHENBURG       N/A     71  67  88 E5          N/A
CALLAWAY         N/A     66  65  97 E12         N/A
$$

...NORTH PLATTE AREA...

CITY           SKY/WX    TMP DP  RH WIND       PRES   REMARKS
AIRPORT        CLOUDY    67  64  90 CALM      30.03R
INDIAN HILLS     N/A     66  64  95 CALM        N/A
$$

...SOME WEATHER OBSERVATIONS FROM AROUND THE REGION...

CITY           SKY/WX    TMP DP  RH WIND       PRES   REMARKS
DENVER         PTCLDY    62  60  93 SW3       30.20F
LARAMIE        PTCLDY    55  54  96 CALM      30.30R FOG
CHEYENNE       MOCLDY    59  57  93 N3        30.24R
SCOTTSBLUFF    MOCLDY    60  59  96 NW7       30.13F
RAPID CITY     PTCLDY    62  57  83 N5        30.12R
PIERRE         LGT RAIN  63  62  97 N20G28    30.05R
WINNER         CLOUDY    69  66  90 NW5       30.02R
SIOUX FALLS    CLOUDY    72  68  87 VRB5      30.02R
OMAHA          CLOUDY    72  67  84 N8        30.03S
GRAND ISLAND   CLOUDY    72  70  93 NE12      30.02S FOG
KANSAS CITY    MOCLDY    75  67  76 S12       30.05S
WICHITA        PTCLDY    72  62  71 S7        30.06R
HAYS           PTCLDY    70  55  60 S3        30.03R
LIBERAL        CLEAR     70  57  64 S9        30.11S
GOODLAND       MOCLDY    63  60  90 N3        30.08F
$$



USA.gov is the U.S. government's official web portal to all federal, state and local government web resources and services.